Cloud_Cover
5 4 8 8 54 46 5 17 5 10 24 4 17 10 1 0 0 0 0 0 0 0 0 0 0 98 100 100 99 19 10 0 5 96 100 18 2 3 5 5 2 100 82 12 75
5 4 6 68 90 100 75 41 32 18 3 22 12 4 10 7 0 0 0 0 0 0 0 0 0 14 100 100 100 100 99 2 4 99 100 100 19 5 5 5 0 3 1 0 0
5 5 11 30 81 100 100 69 5 7 10 21 10 14 0 17 0 0 0 3 0 0 0 0 0 0 100 100 100 100 100 6 1 76 8 99 19 5 8 5 0 4 0 0 0
5 7 31 98 82 100 100 54 6 5 8 17 17 0 1 1 0 0 100 100 55 95 0 0 0 0 33 100 100 100 100 99 50 3 5 4 99 20 7 97 9 0 0 0 0
5 4 5 14 31 93 100 71 16 5 17 21 1 0 2 22 2 0 69 100 98 93 9 0 0 0 0 100 100 100 100 100 100 96 18 5 38 100 52 2 0 0 0 0 0
4 33 100 8 11 100 100 88 5 5 5 8 0 35 6 31 4 0 1 100 100 100 49 5 0 0 2 100 100 100 100 100 100 100 78 86 36 91 98 87 26 36 2 4 4
66 100 98 11 16 44 96 83 70 27 5 5 0 0 9 18 16 2 0 74 100 83 93 5 0 0 0 100 100 100 100 100 100 100 99 100 5 94 73 14 2 0 5 1 4
100 100 94 15 16 67 96 85 81 60 7 5 0 0 4 5 5 5 0 1 59 95 97 100 14 0 4 79 100 100 100 100 100 100 100 100 100 100 100 100 100 38 18 59 78
100 100 52 5 7 5 100 100 10 11 30 2 1 0 0 5 5 5 0 0 36 58 32 100 100 100 49 39 10 98 100 100 100 100 100 100 100 100 100 100 100 100 100 58 66
23 5 3 5 24 5 17 53 57 37 16 2 2 0 0 5 4 5 82 31 0 7 100 52 99 100 100 100 100 94 100 100 100 100 100 100 100 73 100 100 100 100 98 61 46
6 38 5 4 74 5 69 89 100 44 25 0 0 0 0 4 4 6 100 100 24 0 0 42 85 98 100 100 100 100 100 100 100 100 100 100 100 100 100 100 100 100 83 30 5
0 4 25 100 87 5 9 1 4 5 0 0 0 0 0 0 24 100 100 100 100 23 0 0 4 27 50 30 85 100 100 100 100 100 68 100 100 100 100 100 100 98 100 100 100
1 0 2 2 2 33 0 0 5 42 1 2 2 0 0 0 0 4 52 100 74 86 21 5 3 0 0 2 12 22 73 100 85 98 100 79 100 100 100 98 100 93 100 100 100
0 0 4 0 23 0 0 0 24 34 50 38 2 2 5 0 11 59 49 43 62 100 100 100 25 0 0 5 0 0 2 4 6 37 85 70 44 46 100 96 72 100 100 100 100
0 0 0 82 0 0 0 3 50 98 100 36 7 0 16 23 6 89 100 88 10 5 8 96 43 8 12 5 1 3 0 0 0 4 5 4 0 5 100 100 100 53 100 100 99
0 0 2 0 0 0 2 0 66 100 100 88 69 98 91 99 100 92 62 19 8 52 30 19 0 4 83 75 48 74 67 83 8 15 2 8 52 96 100 100 100 100 96 96 97
100 90 88 90 97 84 72 5 21 44 88 100 100 71 5 5 41 100 100 100 100 58 80 100 100 99 96 62 5 18 58 34 46 80 3 70 98 98 100 100 100 100 100 100 100
100 100 100 100 100 99 95 97 47 3 2 4 87 100 100 90 91 70 17 99 86 100 100 31 99 100 99 73 100 100 100 100 100 100 100 100 99 86 100 100 37 9 89 17 50
95 100 100 100 100 100 100 100 100 100 100 96 10 6 3 34 96 11 93 7 47 10 44 39 5 91 98 100 100 99 100 100 43 16 74 20 44 99 100 100 94 5 11 42 8
5 3 1 0 2 23 49 49 29 20 58 65 33 36 97 99 76 96 71 2 8 5 17 39 10 56 87 10 14 100 86 100 78 76 92 90 100 100 100 100 8 100 100 100 78
0 0 0 0 0 0 0 0 0 0 0 0 0 0 0 0 0 1 4 33 2 1 0 0 0 1 1 4 1 6 91 100 100 99 56 57 72 90 69 67 56 100 97 100 99
0 0 0 0 0 0 0 0 0 0 0 0 0 0 0 0 0 0 0 0 0 0 0 0 0 0 0 0 0 0 0 33 75 46 100 96 15 98 100 100 100 100 100 100 100
0 0 0 0 0 0 0 0 0 0 0 0 0 0 0 0 0 0 0 0 0 0 0 0 0 0 0 3 94 100 100 94 67 99 6 98 92 100 100 100 100 100 84 74 92
0 0 0 0 0 0 0 0 0 0 0 0 0 0 0 0 0 0 0 0 0 0 0 0 10 35 94 100 100 100 92 47 52 21 85 23 100 87 81 100 100 100 87 79 100
0 0 0 0 0 0 0 0 0 0 0 0 0 0 0 0 0 0 0 0 0 0 4 94 96 98 100 100 100 97 100 100 100 58 99 58 100 100 54 94 100 100 100 100 100
0 0 0 0 0 5 1 0 0 0 0 0 0 0 0 0 0 0 0 0 2 5 81 98 71 99 100 100 100 100 4 28 80 81 94 93 100 100 98 100 100 100 100 100 100
0 1 0 1 5 5 1 4 0 0 0 0 0 0 0 0 0 0 0 3 5 8 76 96 99 100 88 72 74 54 100 92 93 100 85 53 98 100 100 100 100 100 100 100 100